[[{"header":{"parameterUnit":"m.s-1","parameterCategory":1,"la1":30.2991,"la2":30.254,"lo1":-89.0895,"lo2":-89.0444,"dy":0.0017,"dx":0.0017,"nx":28,"ny":28,"refTime":"2025-06-10T03:00:00:Z","depth":0,"parameterNumber":2,"parameterNumberName":"U-component_of_WINDS"},"data":[0,0,0,0,0,0,0,0,0,0,0,0,0,0,0,0,0,0,0,0,0,0,0,0,0,0,0,0,0,0,0,0,0,0,0,0,0,0,0,0,0,0,0,0,0,0,0,0,0,0,0,0,0,0,0,0,0,0,-2.907,-2.907,0,-2.9056,-2.9056,-2.9056,-2.9049,-2.9049,-2.9049,-2.9049,-2.9035,-2.9034,-2.9034,0,0,0,0,0,0,0,0,0,0,0,0,0,-2.909,-2.9089,-2.907,-2.907,-2.9069,-2.9056,-2.9056,-2.9056,-2.9049,-2.9049,-2.9049,-2.9049,-2.9035,-2.9034,-2.9034,0,0,0,0,0,0,0,0,0,0,0,0,0,-2.9079,-2.9089,-2.907,-2.9064,-2.9064,-2.9057,-2.9056,-2.9056,-2.9049,-2.9049,-2.9049,-2.9049,-2.9035,-2.9034,-2.9034,-2.9031,0,0,-2.9032,-2.9032,0,0,0,0,0,0,0,0,-2.908,-2.9078,-2.9065,-2.9065,-2.9064,-2.9054,-2.9058,-2.9047,-2.9049,-2.9055,-2.9049,-2.9049,-2.9041,-2.904,-2.9038,-2.903,-2.9029,-2.9032,-2.9032,-2.9031,-2.9031,0,0,0,0,0,0,0,-2.908,-2.9079,-2.9064,-2.9065,-2.9064,-2.9063,-2.9061,-2.9056,-2.9048,-2.9054,-2.9054,-2.9052,-2.9041,-2.9038,-2.9037,-2.9029,-2.9032,-2.9032,-2.9031,-2.9031,-2.9019,-2.9019,0,0,0,0,0,0,-2.9082,-2.908,-2.9065,-2.9064,-2.9072,-2.9063,-2.9061,-2.9058,-2.9048,-2.9047,-2.9052,-2.9052,-2.9039,-2.9038,-2.9037,-2.9033,-2.9031,-2.9031,-2.9031,-2.9019,-2.9019,-2.9019,0,0,0,0,0,0,-2.9083,-2.9081,-2.9065,-2.9072,-2.907,-2.9062,-2.9059,-2.9057,-2.9055,-2.9047,-2.9045,-2.9051,-2.9039,-2.9037,-2.9032,-2.9032,-2.9031,-2.903,-2.9019,-2.9019,-2.9019,-2.9024,0,0,0,0,0,0,-2.9083,-2.9081,-2.908,-2.9072,-2.9069,-2.9061,-2.9059,-2.9057,-2.9054,-2.9053,-2.9045,-2.9044,-2.9039,-2.9033,-2.9032,-2.9031,-2.903,-2.9019,-2.9019,-2.9019,-2.9024,-2.9024,-2.9025,0,0,0,0,0,-2.9084,-2.9081,-2.9079,-2.9078,-2.9067,-2.9061,-2.906,-2.9055,-2.9054,-2.9052,-2.9047,-2.9044,-2.9033,-2.9033,-2.9031,-2.903,-2.9019,-2.9019,-2.9019,-2.9024,-2.9024,-2.9025,0,0,0,0,0,0,-2.9088,-2.908,-2.9078,-2.9073,-2.9068,-2.906,-2.9058,-2.9055,-2.905,-2.905,-2.9043,-2.9042,-2.9037,-2.9033,-2.9034,-2.9027,-2.9025,-2.9025,-2.903,-2.903,-2.903,-2.9031,-2.9029,0,0,0,0,0,-2.9089,-2.9085,-2.9078,-2.9074,-2.9071,-2.9065,-2.9062,-2.9059,-2.9054,-2.9051,-2.9046,-2.9041,-2.9036,-2.9033,-2.9028,-2.9024,-2.9022,-2.9023,-2.9023,-2.9023,-2.9023,-2.9021,-2.9021,-2.9019,-2.9019,-2.9019,0,0,-2.909,-2.9085,-2.9082,-2.9075,-2.907,-2.9066,-2.9063,-2.9059,-2.9056,-2.9051,-2.9045,-2.9042,-2.9035,-2.9031,-2.9029,-2.9027,-2.9023,-2.9023,-2.9024,-2.9023,-2.9021,-2.9021,-2.9021,-2.9019,-2.9019,-2.9019,0,0,-2.9089,-2.9085,-2.9081,-2.9077,-2.9071,-2.9068,-2.9067,-2.906,-2.9057,-2.9052,-2.9048,-2.9045,-2.9037,-2.9033,-2.9029,-2.9029,-2.9026,-2.9028,-2.9029,-2.9027,-2.9027,-2.9027,-2.9027,-2.9027,-2.9027,-2.9027,-2.9027,0,-2.909,-2.9084,-2.908,-2.9076,-2.9073,-2.9069,-2.9065,-2.9062,-2.9054,-2.9052,-2.9051,-2.9042,-2.9037,-2.9032,-2.9032,-2.903,-2.9029,-2.9028,-2.9028,-2.9028,-2.9028,-2.9028,-2.9028,-2.9028,-2.9028,-2.9028,-2.9028,0,-2.9087,-2.9082,-2.908,-2.9074,-2.9071,-2.9067,-2.9062,-2.906,-2.9057,-2.9054,-2.9049,-2.9044,-2.9038,-2.9037,-2.9034,-2.9031,-2.9031,-2.9029,-2.9027,-2.9028,-2.9028,-2.9028,-2.9028,-2.9028,-2.9028,-2.9028,0,0,-2.9087,-2.9079,-2.9078,-2.9076,-2.907,-2.9066,-2.9063,-2.9058,-2.9056,-2.9052,-2.9049,-2.9043,-2.9041,-2.9038,-2.9035,-2.9033,-2.9033,-2.9031,-2.9031,-2.9032,-2.9031,-2.9032,-2.9032,-2.9032,-2.9032,-2.9032,-2.9031,0,-2.9085,-2.9079,-2.9075,-2.907,-2.9067,-2.9063,-2.9061,-2.9057,-2.9054,-2.905,-2.9047,-2.9043,-2.9041,-2.9039,-2.9038,-2.9034,-2.9033,-2.9034,-2.9029,-2.9029,-2.903,-2.9032,-2.9032,-2.9032,-2.9031,-2.9031,-2.9031,0,-2.9081,-2.9078,-2.9073,-2.9068,-2.9066,-2.9064,-2.9059,-2.9056,-2.9052,-2.905,-2.9047,-2.9044,-2.9041,-2.904,-2.9035,-2.9036,-2.9034,-2.9032,-2.9032,-2.903,-2.9029,-2.903,-2.9032,-2.9032,-2.9031,-2.9031,-2.9031,0,-2.9082,-2.9076,-2.9072,-2.907,-2.9064,-2.9063,-2.906,-2.9056,-2.9054,-2.905,-2.9049,-2.9045,-2.9042,-2.9039,-2.9036,-2.9035,-2.9032,-2.903,-2.903,-2.903,-2.9028,-2.9028,-2.9029,-2.9028,-2.9028,-2.9028,-2.9028,0,-2.908,-2.9077,-2.9072,-2.907,-2.9067,-2.9064,-2.9061,-2.9058,-2.9055,-2.9052,-2.9049,-2.9046,-2.9042,-2.9039,-2.9036,-2.9033,-2.9032,-2.903,-2.9029,-2.903,-2.903,-2.9028,-2.9028,-2.9028,-2.9028,-2.9028,-2.9028,0,-2.9079,-2.9076,-2.9072,-2.9068,-2.9067,-2.9064,-2.9061,-2.9058,-2.9056,-2.9053,-2.9052,-2.9048,-2.9044,-2.9041,-2.9036,-2.9034,-2.9031,-2.903,-2.9032,-2.9032,-2.9031,-2.9031,-2.903,-2.903,-2.9029,-2.9029,-2.9029,0,-2.9078,-2.9076,-2.9071,-2.9069,-2.9067,-2.9064,-2.9062,-2.9059,-2.9057,-2.9053,-2.9051,-2.9048,-2.9045,-2.904,-2.9036,-2.9033,-2.9031,-2.9032,-2.9031,-2.9032,-2.9031,-2.9031,-2.9031,-2.9031,-2.9031,-2.9031,-2.9031,0,-2.9075,-2.9074,-2.9071,-2.9068,-2.9066,-2.9063,-2.906,-2.9059,-2.9056,-2.9054,-2.905,-2.9048,-2.9044,-2.9041,-2.9037,-2.9035,-2.9032,-2.9032,-2.9032,-2.9032,-2.9033,-2.9033,-2.9032,-2.9032,-2.9032,-2.9032,-2.9032,-2.9032,-2.9074,-2.9072,-2.9069,-2.9066,-2.9064,-2.9062,-2.906,-2.9058,-2.9055,-2.9051,-2.905,-2.9047,-2.9044,-2.9039,-2.9037,-2.9034,-2.9034,-2.9033,-2.9033,-2.9033,-2.9033,-2.9035,-2.9034,-2.9034,-2.9034,-2.9034,-2.9034,0,-2.9071,-2.907,-2.9067,-2.9064,-2.9062,-2.9061,-2.9058,-2.9056,-2.9054,-2.9051,-2.9049,-2.9046,-2.9043,-2.904,-2.9037,-2.9035,-2.9034,-2.9035,-2.9034,-2.9034,-2.9034,-2.9034,-2.9036,-2.9036,-2.9036,-2.9036,-2.9036,-2.9036,-2.907,-2.9067,-2.9065,-2.9062,-2.906,-2.9057,-2.9056,-2.9054,-2.9052,-2.9049,-2.9046,-2.9045,-2.9042,-2.9039,-2.9037,-2.9036,-2.9035,-2.9035,-2.9034,-2.9034,-2.9034,-2.9034,-2.9034,-2.9035,-2.9035,-2.9035,-2.9035,-2.9035]},{"header":{"parameterUnit":"m.s-1","parameterCategory":1,"la1":30.2991,"la2":30.254,"lo1":-89.0895,"lo2":-89.0444,"dy":0.0017,"dx":0.0017,"nx":28,"ny":28,"refTime":"2025-06-10T03:00:00:Z","depth":0,"parameterNumber":3,"parameterNumberName":"V-component_of_WINDS"},"data":[0,0,0,0,0,0,0,0,0,0,0,0,0,0,0,0,0,0,0,0,0,0,0,0,0,0,0,0,0,0,0,0,0,0,0,0,0,0,0,0,0,0,0,0,0,0,0,0,0,0,0,0,0,0,0,0,0,0,3.6225,3.6224,0,3.6138,3.6137,3.6136,3.6024,3.6023,3.6021,3.6019,3.5929,3.5929,3.5928,0,0,0,0,0,0,0,0,0,0,0,0,0,3.6291,3.629,3.6225,3.6224,3.6222,3.6138,3.6137,3.6136,3.6025,3.6022,3.602,3.6018,3.593,3.5929,3.5928,0,0,0,0,0,0,0,0,0,0,0,0,0,3.6239,3.629,3.6225,3.6157,3.615,3.6139,3.6137,3.6136,3.6025,3.6022,3.602,3.6017,3.593,3.5929,3.5928,3.5976,0,0,3.5925,3.5924,0,0,0,0,0,0,0,0,3.6242,3.6237,3.6168,3.6161,3.6154,3.6089,3.6127,3.6082,3.6026,3.6073,3.6019,3.6016,3.5985,3.5979,3.5969,3.5972,3.5968,3.5925,3.5924,3.5924,3.5923,0,0,0,0,0,0,0,3.6246,3.624,3.619,3.6167,3.6158,3.613,3.6119,3.6118,3.6045,3.6068,3.606,3.6051,3.598,3.597,3.5966,3.5967,3.5925,3.5924,3.5923,3.5923,3.6004,3.6007,0,0,0,0,0,0,3.626,3.6244,3.6193,3.6188,3.6192,3.6131,3.6119,3.6113,3.6045,3.6032,3.6054,3.6046,3.5973,3.5967,3.5962,3.6015,3.5924,3.5923,3.5922,3.6001,3.6005,3.6008,0,0,0,0,0,0,3.6262,3.6256,3.6197,3.6213,3.6204,3.6133,3.6126,3.6112,3.6102,3.6034,3.602,3.6057,3.5971,3.5964,3.5973,3.601,3.5922,3.5921,3.5998,3.6002,3.6006,3.612,0,0,0,0,0,0,3.6264,3.6258,3.6276,3.6215,3.6203,3.6211,3.6128,3.6113,3.6101,3.609,3.6033,3.6021,3.5968,3.5976,3.5972,3.6007,3.592,3.5995,3.6,3.6005,3.6113,3.6128,3.6141,0,0,0,0,0,3.6267,3.6312,3.6278,3.6272,3.6225,3.6213,3.6206,3.6145,3.6104,3.6122,3.6077,3.6023,3.6006,3.5978,3.5973,3.6008,3.5992,3.5998,3.6005,3.6107,3.6125,3.614,0,0,0,0,0,0,3.6379,3.6302,3.6264,3.629,3.6259,3.6194,3.6215,3.6166,3.6146,3.6137,3.6061,3.6049,3.6068,3.6038,3.6008,3.605,3.5991,3.5996,3.607,3.6087,3.61,3.6108,3.5919,0,0,0,0,0,3.6407,3.6405,3.6337,3.6366,3.6353,3.6287,3.6279,3.6234,3.6199,3.6185,3.6141,3.6109,3.6095,3.6089,3.6073,3.6107,3.6093,3.6128,3.6142,3.6154,3.6161,3.6176,3.6192,3.6028,3.6028,3.6028,0,0,3.6465,3.6422,3.6425,3.6388,3.6359,3.6357,3.6276,3.6278,3.6276,3.6185,3.6192,3.6159,3.6117,3.6139,3.6147,3.6115,3.6202,3.6162,3.6172,3.6172,3.6184,3.62,3.6214,3.6033,3.6032,3.6031,0,0,3.657,3.6537,3.6559,3.653,3.6487,3.6442,3.6447,3.6389,3.6364,3.6369,3.6301,3.6296,3.6276,3.6249,3.6232,3.6325,3.6274,3.6321,3.6395,3.6411,3.6424,3.6435,3.6469,3.6482,3.6328,3.6328,3.6328,0,3.6648,3.6644,3.6576,3.6582,3.6568,3.6484,3.6505,3.648,3.6434,3.6426,3.639,3.6362,3.6328,3.6343,3.6366,3.6354,3.6358,3.6329,3.6428,3.6438,3.6447,3.6479,3.6492,3.6334,3.6333,3.6333,3.6332,0,3.6741,3.6739,3.6761,3.6719,3.6707,3.672,3.6654,3.6649,3.6604,3.6563,3.657,3.6525,3.6499,3.6498,3.6455,3.6507,3.6489,3.6442,3.6381,3.647,3.6499,3.6511,3.6343,3.6341,3.6339,3.6338,0,0,3.6919,3.6837,3.6847,3.6826,3.6771,3.6767,3.6776,3.6751,3.6749,3.6718,3.6724,3.6708,3.6663,3.6645,3.6597,3.6611,3.6688,3.6561,3.6559,3.6588,3.6744,3.6782,3.6797,3.6652,3.6654,3.6656,3.6748,0,3.7015,3.7028,3.6966,3.6994,3.6991,3.691,3.6918,3.6884,3.6845,3.6836,3.6792,3.6783,3.6724,3.6712,3.6722,3.6677,3.6719,3.6669,3.6658,3.6659,3.6674,3.6812,3.6852,3.6941,3.6758,3.676,3.6761,0,3.713,3.7107,3.7136,3.7078,3.7074,3.7083,3.7054,3.7046,3.7006,3.6976,3.6955,3.6899,3.6903,3.6842,3.6847,3.6814,3.6805,3.6782,3.6784,3.6783,3.6718,3.6817,3.6968,3.6982,3.6778,3.6777,3.6776,0,3.726,3.7234,3.7248,3.7233,3.7165,3.7173,3.7145,3.7102,3.709,3.7064,3.7056,3.703,3.7017,3.6999,3.6937,3.6899,3.6949,3.6883,3.6925,3.6927,3.6942,3.6942,3.7096,3.6932,3.6932,3.6932,3.6931,0,3.7376,3.7397,3.7305,3.7314,3.7335,3.7262,3.7284,3.7248,3.721,3.721,3.7136,3.7138,3.7055,3.7047,3.6998,3.701,3.7003,3.698,3.6967,3.6988,3.6992,3.6983,3.6977,3.6935,3.6934,3.6934,3.6933,0,3.7525,3.7464,3.7475,3.7409,3.7393,3.7411,3.7355,3.736,3.7315,3.7315,3.7311,3.7241,3.7227,3.7163,3.7134,3.7101,3.713,3.7103,3.7144,3.7136,3.7183,3.718,3.7339,3.7357,3.7179,3.7181,3.7183,0,3.7605,3.762,3.7555,3.755,3.7526,3.7518,3.7506,3.7433,3.7423,3.7377,3.7388,3.7368,3.7349,3.733,3.7276,3.7253,3.7226,3.7283,3.7223,3.7243,3.723,3.7231,3.7232,3.7298,3.73,3.7302,3.7304,0,3.7754,3.7723,3.7708,3.7683,3.767,3.7647,3.7619,3.7618,3.7538,3.753,3.7515,3.75,3.747,3.7451,3.7419,3.7388,3.7333,3.7322,3.7331,3.7354,3.7379,3.7368,3.7183,3.732,3.7318,3.7317,3.7316,3.7316,3.7873,3.7882,3.7838,3.7824,3.7795,3.777,3.7772,3.7726,3.7713,3.7683,3.764,3.7631,3.7588,3.7539,3.7513,3.7504,3.7472,3.7485,3.7488,3.7493,3.7505,3.7378,3.7497,3.7496,3.7496,3.7495,3.7495,0,3.802,3.7987,3.7975,3.7938,3.7926,3.7874,3.7839,3.7833,3.7827,3.7791,3.7773,3.7756,3.7736,3.768,3.7655,3.7659,3.7633,3.7655,3.7655,3.7649,3.7533,3.7529,3.7676,3.7676,3.7676,3.7676,3.7676,3.7676,3.8096,3.8109,3.8072,3.8069,3.8035,3.8026,3.8011,3.7987,3.7959,3.7943,3.7927,3.7889,3.7845,3.7816,3.7796,3.7779,3.7774,3.7805,3.7781,3.7675,3.7657,3.7641,3.7637,3.7804,3.7805,3.7898,3.7899,3.79]}]]